Volver al catálogo

THOR ABLESTAR DEB

ActivoLEO
NORAD 119·DEBRIS·🇺🇸 United States

Lanzado Jun 29, 1961 desde Cape Canaveral Space Force Station

Loading…

Próximos Pases (próximas 24 horas)

TLE

ActualizadoSource: Space-Track

Época: Sep 7, 2026, 05:05 UTC

1 00119U 61015D   26250.21192815  .00000348  00000-0  16679-3 0  9995
2 00119  66.7268 175.1170 0103104 203.8452 155.7852 14.27418774370023

Sigue THOR ABLESTAR DEB en tiempo real con AllMySat

Download on the App Store